Time,TemperatureF,DewpointF,PressureIn,WindDirection,WindDirectionDegrees,WindSpeedMPH,WindSpeedGustMPH,Humidity,HourlyPrecipIn,Conditions,Clouds,dailyrainin,SoftwareType,DateUTC
2013-02-12 00:01:00,50.0,25.0,29.99,NW,305,0.0,-999.0,38,-99.99,,,-99.99,,2013-02-12 05:01:00,
2013-02-12 00:11:00,50.0,25.0,29.99,NW,305,0.0,-999.0,38,-99.99,,,-99.99,,2013-02-12 05:11:00,
2013-02-12 00:21:00,50.0,24.0,29.97,NW,307,0.0,-999.0,36,-99.99,,,-99.99,,2013-02-12 05:21:00,
2013-02-12 00:32:00,50.0,25.0,29.99,WNW,296,3.0,-999.0,37,-99.99,,,-99.99,,2013-02-12 05:32:00,
2013-02-12 00:42:00,50.0,25.0,29.99,WNW,296,3.0,-999.0,37,-99.99,,,-99.99,,2013-02-12 05:42:00,
2013-02-12 00:52:00,50.0,25.0,29.98,West,281,2.0,-999.0,38,-99.99,,,-99.99,,2013-02-12 05:52:00,
2013-02-12 01:02:00,49.0,25.0,29.98,NW,317,0.0,-999.0,38,-99.99,,,-99.99,,2013-02-12 06:02:00,
2013-02-12 01:12:00,49.0,25.0,29.99,NNE,26,0.0,-999.0,39,-99.99,,,-99.99,,2013-02-12 06:12:00,
2013-02-12 01:22:00,49.0,25.0,29.99,NNE,26,0.0,-999.0,39,-99.99,,,-99.99,,2013-02-12 06:22:00,
2013-02-12 01:32:00,49.0,27.0,29.99,South,177,0.0,-999.0,42,-99.99,,,-99.99,,2013-02-12 06:32:00,
2013-02-12 01:42:00,48.0,25.0,29.99,SW,233,2.0,-999.0,40,-99.99,,,-99.99,,2013-02-12 06:42:00,
2013-02-12 01:52:00,48.0,25.0,29.99,SW,233,2.0,-999.0,40,-99.99,,,-99.99,,2013-02-12 06:52:00,
2013-02-12 02:01:00,48.0,26.0,30.00,NW,308,3.0,-999.0,42,-99.99,,,-99.99,,2013-02-12 07:01:00,
2013-02-12 02:11:00,48.0,26.0,30.00,NW,308,3.0,-999.0,42,-99.99,,,-99.99,,2013-02-12 07:11:00,
2013-02-12 02:21:00,47.0,26.0,30.01,WSW,256,3.0,-999.0,43,-99.99,,,-99.99,,2013-02-12 07:21:00,
2013-02-12 02:32:00,47.0,26.0,30.02,NW,315,4.0,-999.0,44,-99.99,,,-99.99,,2013-02-12 07:32:00,
2013-02-12 02:42:00,47.0,26.0,30.02,NW,315,4.0,-999.0,44,-99.99,,,-99.99,,2013-02-12 07:42:00,
2013-02-12 02:51:00,47.0,27.0,30.02,WNW,302,3.0,-999.0,45,-99.99,,,-99.99,,2013-02-12 07:51:00,
2013-02-12 03:01:00,46.0,26.0,30.02,WNW,296,2.0,-999.0,46,-99.99,,,-99.99,,2013-02-12 08:01:00,
2013-02-12 03:11:00,46.0,26.0,30.02,WNW,296,2.0,-999.0,46,-99.99,,,-99.99,,2013-02-12 08:11:00,
2013-02-12 03:21:00,45.0,27.0,30.02,West,276,2.0,-999.0,48,-99.99,,,-99.99,,2013-02-12 08:21:00,
2013-02-12 03:32:00,45.0,27.0,30.03,North,360,4.0,-999.0,48,-99.99,,,-99.99,,2013-02-12 08:32:00,
2013-02-12 03:42:00,45.0,27.0,30.03,North,360,4.0,-999.0,48,-99.99,,,-99.99,,2013-02-12 08:42:00,
2013-02-12 03:52:00,45.0,27.0,30.03,North,350,4.0,-999.0,48,-99.99,,,-99.99,,2013-02-12 08:52:00,
2013-02-12 04:02:00,44.0,26.0,30.02,WNW,297,3.0,-999.0,48,-99.99,,,-99.99,,2013-02-12 09:02:00,
2013-02-12 04:11:00,44.0,26.0,30.02,WNW,297,3.0,-999.0,48,-99.99,,,-99.99,,2013-02-12 09:11:00,
2013-02-12 04:21:00,44.0,26.0,30.02,NW,315,1.0,-999.0,48,-99.99,,,-99.99,,2013-02-12 09:21:00,
2013-02-12 04:32:00,43.0,25.0,30.04,NW,323,0.0,-999.0,49,-99.99,,,-99.99,,2013-02-12 09:32:00,
2013-02-12 04:42:00,43.0,25.0,30.04,NW,323,0.0,-999.0,49,-99.99,,,-99.99,,2013-02-12 09:42:00,
2013-02-12 04:52:00,43.0,24.0,30.03,West,264,3.0,-999.0,47,-99.99,,,-99.99,,2013-02-12 09:52:00,
2013-02-12 05:01:00,43.0,24.0,30.03,WNW,286,3.0,-999.0,47,-99.99,,,-99.99,,2013-02-12 10:01:00,
2013-02-12 05:11:00,43.0,24.0,30.03,NNE,18,1.0,-999.0,47,-99.99,,,-99.99,,2013-02-12 10:11:00,
2013-02-12 05:21:00,43.0,24.0,30.03,NNE,18,1.0,-999.0,47,-99.99,,,-99.99,,2013-02-12 10:21:00,
2013-02-12 05:32:00,43.0,24.0,30.03,West,281,2.0,-999.0,47,-99.99,,,-99.99,,2013-02-12 10:32:00,
2013-02-12 05:43:00,43.0,24.0,30.03,West,281,2.0,-999.0,47,-99.99,,,-99.99,,2013-02-12 10:43:00,
2013-02-12 05:51:00,43.0,24.0,30.03,WNW,302,0.0,-999.0,47,-99.99,,,-99.99,,2013-02-12 10:51:00,
2013-02-12 06:02:00,43.0,24.0,30.03,WNW,302,1.0,-999.0,46,-99.99,,,-99.99,,2013-02-12 11:02:00,
2013-02-12 06:11:00,43.0,24.0,30.03,WNW,302,1.0,-999.0,46,-99.99,,,-99.99,,2013-02-12 11:11:00,
2013-02-12 06:22:00,43.0,24.0,30.03,NE,42,0.0,-999.0,46,-99.99,,,-99.99,,2013-02-12 11:22:00,
2013-02-12 06:32:00,43.0,23.0,30.03,WNW,300,4.0,-999.0,45,-99.99,,,-99.99,,2013-02-12 11:32:00,
2013-02-12 06:42:00,43.0,23.0,30.03,WNW,300,4.0,-999.0,45,-99.99,,,-99.99,,2013-02-12 11:42:00,
2013-02-12 06:52:00,43.0,23.0,30.03,NW,313,1.0,-999.0,45,-99.99,,,-99.99,,2013-02-12 11:52:00,
2013-02-12 07:02:00,43.0,23.0,30.03,NW,313,1.0,-999.0,45,-99.99,,,-99.99,,2013-02-12 12:02:00,
2013-02-12 07:11:00,43.0,23.0,30.03,NW,313,1.0,-999.0,45,-99.99,,,-99.99,,2013-02-12 12:11:00,
2013-02-12 07:21:00,42.0,23.0,30.04,NW,321,0.0,-999.0,46,-99.99,,,-99.99,,2013-02-12 12:21:00,
2013-02-12 07:32:00,42.0,23.0,30.04,WNW,286,0.0,-999.0,46,-99.99,,,-99.99,,2013-02-12 12:32:00,
2013-02-12 07:42:00,42.0,23.0,30.04,WNW,286,0.0,-999.0,46,-99.99,,,-99.99,,2013-02-12 12:42:00,
2013-02-12 07:52:00,42.0,26.0,30.06,NW,306,0.0,-999.0,52,-99.99,,,-99.99,,2013-02-12 12:52:00,
2013-02-12 08:02:00,42.0,23.0,30.06,West,281,1.0,-999.0,47,-99.99,,,-99.99,,2013-02-12 13:02:00,
2013-02-12 08:11:00,43.0,24.0,30.06,NW,323,1.0,-999.0,46,-99.99,,,-99.99,,2013-02-12 13:11:00,
2013-02-12 08:22:00,43.0,24.0,30.06,NW,323,1.0,-999.0,46,-99.99,,,-99.99,,2013-02-12 13:22:00,
2013-02-12 08:32:00,43.0,24.0,30.06,WNW,294,2.0,-999.0,46,-99.99,,,-99.99,,2013-02-12 13:32:00,
2013-02-12 08:42:00,43.0,24.0,30.06,WNW,294,2.0,-999.0,46,-99.99,,,-99.99,,2013-02-12 13:42:00,
2013-02-12 08:52:00,43.0,24.0,30.06,NW,312,1.0,-999.0,46,-99.99,,,-99.99,,2013-02-12 13:52:00,
2013-02-12 09:01:00,43.0,25.0,30.06,SSW,204,0.0,-999.0,48,-99.99,,,-99.99,,2013-02-12 14:01:00,
2013-02-12 09:12:00,43.0,25.0,30.06,SSW,204,0.0,-999.0,48,-99.99,,,-99.99,,2013-02-12 14:12:00,
2013-02-12 09:22:00,43.0,24.0,30.06,NNW,331,0.0,-999.0,46,-99.99,,,-99.99,,2013-02-12 14:22:00,
2013-02-12 09:32:00,44.0,23.0,30.09,NW,315,2.0,-999.0,44,-99.99,,,-99.99,,2013-02-12 14:32:00,
2013-02-12 09:42:00,44.0,23.0,30.09,NW,315,2.0,-999.0,44,-99.99,,,-99.99,,2013-02-12 14:42:00,
2013-02-12 09:52:00,44.0,23.0,30.08,WNW,301,2.0,-999.0,43,-99.99,,,-99.99,,2013-02-12 14:52:00,
2013-02-12 10:02:00,46.0,24.0,30.09,NNW,333,1.0,-999.0,42,-99.99,,,-99.99,,2013-02-12 15:02:00,
2013-02-12 10:11:00,46.0,25.0,30.09,NW,320,1.0,-999.0,43,-99.99,,,-99.99,,2013-02-12 15:11:00,
2013-02-12 10:21:00,46.0,25.0,30.09,NW,320,1.0,-999.0,43,-99.99,,,-99.99,,2013-02-12 15:21:00,
2013-02-12 10:32:00,48.0,25.0,30.09,West,277,2.0,-999.0,40,-99.99,,,-99.99,,2013-02-12 15:32:00,
2013-02-12 10:42:00,48.0,25.0,30.09,West,277,2.0,-999.0,40,-99.99,,,-99.99,,2013-02-12 15:42:00,
2013-02-12 10:52:00,49.0,24.0,30.09,WSW,248,2.0,-999.0,37,-99.99,,,-99.99,,2013-02-12 15:52:00,
2013-02-12 11:02:00,50.0,23.0,30.09,NW,315,2.0,-999.0,35,-99.99,,,-99.99,,2013-02-12 16:02:00,
2013-02-12 11:11:00,50.0,23.0,30.09,NW,315,2.0,-999.0,35,-99.99,,,-99.99,,2013-02-12 16:11:00,
2013-02-12 11:22:00,51.0,23.0,30.08,NNE,12,2.0,-999.0,33,-99.99,,,-99.99,,2013-02-12 16:22:00,
2013-02-12 11:32:00,52.0,23.0,30.07,West,281,2.0,-999.0,32,-99.99,,,-99.99,,2013-02-12 16:32:00,
2013-02-12 11:42:00,52.0,23.0,30.07,West,281,2.0,-999.0,32,-99.99,,,-99.99,,2013-02-12 16:42:00,
2013-02-12 11:52:00,53.0,24.0,30.06,NW,316,3.0,-999.0,32,-99.99,,,-99.99,,2013-02-12 16:52:00,
2013-02-12 12:01:00,53.0,23.0,30.05,NNE,22,2.0,-999.0,31,-99.99,,,-99.99,,2013-02-12 17:01:00,
2013-02-12 12:12:00,53.0,23.0,30.05,NNE,22,2.0,-999.0,31,-99.99,,,-99.99,,2013-02-12 17:12:00,
2013-02-12 12:21:00,53.0,24.0,30.03,NW,304,2.0,-999.0,32,-99.99,,,-99.99,,2013-02-12 17:21:00,
2013-02-12 12:32:00,54.0,26.0,30.00,NNW,348,2.0,-999.0,33,-99.99,,,-99.99,,2013-02-12 17:32:00,
2013-02-12 12:42:00,54.0,26.0,30.00,NNW,348,2.0,-999.0,33,-99.99,,,-99.99,,2013-02-12 17:42:00,
2013-02-12 12:52:00,55.0,23.0,30.01,WNW,303,1.0,-999.0,29,-99.99,,,-99.99,,2013-02-12 17:52:00,
2013-02-12 13:02:00,55.0,22.0,30.01,West,269,2.0,-999.0,27,-99.99,,,-99.99,,2013-02-12 18:02:00,
2013-02-12 13:12:00,56.0,22.0,30.02,NW,322,1.0,-999.0,26,-99.99,,,-99.99,,2013-02-12 18:12:00,
2013-02-12 13:23:00,56.0,22.0,30.02,NW,322,1.0,-999.0,26,-99.99,,,-99.99,,2013-02-12 18:23:00,
2013-02-12 13:32:00,57.0,22.0,30.01,WNW,296,0.0,-999.0,26,-99.99,,,-99.99,,2013-02-12 18:32:00,
2013-02-12 13:41:00,57.0,22.0,30.01,WNW,296,0.0,-999.0,26,-99.99,,,-99.99,,2013-02-12 18:41:00,
2013-02-12 13:51:00,57.0,25.0,30.01,SSW,211,1.0,-999.0,29,-99.99,,,-99.99,,2013-02-12 18:51:00,
2013-02-12 14:02:00,58.0,24.0,30.01,SW,223,0.0,-999.0,27,-99.99,,,-99.99,,2013-02-12 19:02:00,
2013-02-12 14:11:00,58.0,24.0,30.01,SW,223,0.0,-999.0,27,-99.99,,,-99.99,,2013-02-12 19:11:00,
2013-02-12 14:21:00,58.0,27.0,30.00,South,178,1.0,-999.0,30,-99.99,,,-99.99,,2013-02-12 19:21:00,
2013-02-12 14:32:00,57.0,25.0,29.99,SSE,168,1.0,-999.0,29,-99.99,,,-99.99,,2013-02-12 19:32:00,
2013-02-12 14:42:00,57.0,25.0,29.99,SSW,192,1.0,-999.0,29,-99.99,,,-99.99,,2013-02-12 19:42:00,
2013-02-12 14:52:00,57.0,25.0,29.99,SSW,192,1.0,-999.0,29,-99.99,,,-99.99,,2013-02-12 19:52:00,
2013-02-12 15:01:00,56.0,27.0,30.00,SW,229,0.0,-999.0,32,-99.99,,,-99.99,,2013-02-12 20:01:00,
2013-02-12 15:11:00,56.0,27.0,30.00,SW,229,0.0,-999.0,32,-99.99,,,-99.99,,2013-02-12 20:11:00,
2013-02-12 15:21:00,56.0,27.0,30.00,SW,229,0.0,-999.0,32,-99.99,,,-99.99,,2013-02-12 20:21:00,
2013-02-12 15:32:00,55.0,25.0,29.96,South,172,0.0,-999.0,31,-99.99,,,-99.99,,2013-02-12 20:32:00,
2013-02-12 15:41:00,55.0,25.0,29.96,South,172,0.0,-999.0,31,-99.99,,,-99.99,,2013-02-12 20:41:00,
2013-02-12 15:52:00,56.0,28.0,29.97,South,181,0.0,-999.0,34,-99.99,,,-99.99,,2013-02-12 20:52:00,
2013-02-12 16:02:00,55.0,27.0,30.00,SSE,148,1.0,-999.0,34,-99.99,,,-99.99,,2013-02-12 21:02:00,
2013-02-12 16:11:00,55.0,27.0,30.00,SSE,148,1.0,-999.0,34,-99.99,,,-99.99,,2013-02-12 21:11:00,
2013-02-12 16:21:00,55.0,26.0,30.00,West,270,0.0,-999.0,33,-99.99,,,-99.99,,2013-02-12 21:21:00,
2013-02-12 16:31:00,54.0,25.0,30.00,SW,221,0.0,-999.0,32,-99.99,,,-99.99,,2013-02-12 21:31:00,
2013-02-12 16:42:00,54.0,26.0,30.00,WSW,245,0.0,-999.0,33,-99.99,,,-99.99,,2013-02-12 21:42:00,
2013-02-12 16:52:00,54.0,26.0,30.00,WSW,245,0.0,-999.0,33,-99.99,,,-99.99,,2013-02-12 21:52:00,
2013-02-12 17:01:00,53.0,28.0,29.98,SSW,210,0.0,-999.0,38,-99.99,,,-99.99,,2013-02-12 22:01:00,
2013-02-12 17:12:00,53.0,28.0,29.98,SSW,210,0.0,-999.0,38,-99.99,,,-99.99,,2013-02-12 22:12:00,
2013-02-12 17:21:00,53.0,28.0,29.97,SSW,202,0.0,-999.0,38,-99.99,,,-99.99,,2013-02-12 22:21:00,
2013-02-12 17:32:00,52.0,30.0,29.98,SSW,202,0.0,-999.0,42,-99.99,,,-99.99,,2013-02-12 22:32:00,
2013-02-12 17:42:00,52.0,30.0,29.98,SSW,202,0.0,-999.0,42,-99.99,,,-99.99,,2013-02-12 22:42:00,
2013-02-12 17:52:00,52.0,29.0,29.98,SSW,211,0.0,-999.0,41,-99.99,,,-99.99,,2013-02-12 22:52:00,
2013-02-12 18:01:00,51.0,29.0,30.00,SSW,211,0.0,-999.0,43,-99.99,,,-99.99,,2013-02-12 23:01:00,
2013-02-12 18:11:00,51.0,30.0,29.98,SSW,211,0.0,-999.0,44,-99.99,,,-99.99,,2013-02-12 23:11:00,
2013-02-12 18:21:00,51.0,30.0,29.98,SSW,211,0.0,-999.0,44,-99.99,,,-99.99,,2013-02-12 23:21:00,
2013-02-12 18:32:00,50.0,29.0,29.97,SSW,211,0.0,-999.0,44,-99.99,,,-99.99,,2013-02-12 23:32:00,
2013-02-12 18:42:00,50.0,29.0,29.97,SSW,211,0.0,-999.0,44,-99.99,,,-99.99,,2013-02-12 23:42:00,
2013-02-12 18:52:00,49.0,29.0,29.98,SSW,213,0.0,-999.0,46,-99.99,,,-99.99,,2013-02-12 23:52:00,
2013-02-12 19:02:00,49.0,30.0,29.96,SSW,213,0.0,-999.0,47,-99.99,,,-99.99,,2013-02-13 00:02:00,
2013-02-12 19:11:00,49.0,30.0,29.96,SSW,213,0.0,-999.0,47,-99.99,,,-99.99,,2013-02-13 00:11:00,
2013-02-12 19:21:00,49.0,28.0,29.93,SSW,213,0.0,-999.0,44,-99.99,,,-99.99,,2013-02-13 00:21:00,
2013-02-12 19:32:00,49.0,28.0,29.93,SW,229,0.0,-999.0,44,-99.99,,,-99.99,,2013-02-13 00:32:00,
2013-02-12 19:42:00,49.0,28.0,29.93,SW,229,0.0,-999.0,44,-99.99,,,-99.99,,2013-02-13 00:42:00,
2013-02-12 19:52:00,49.0,28.0,29.93,SW,229,0.0,-999.0,44,-99.99,,,-99.99,,2013-02-13 00:52:00,
2013-02-12 20:01:00,49.0,25.0,29.95,ESE,102,0.0,-999.0,39,-99.99,,,-99.99,,2013-02-13 01:01:00,
2013-02-12 20:11:00,49.0,25.0,29.95,ESE,102,0.0,-999.0,39,-99.99,,,-99.99,,2013-02-13 01:11:00,
2013-02-12 20:21:00,48.0,26.0,29.96,ESE,102,0.0,-999.0,42,-99.99,,,-99.99,,2013-02-13 01:21:00,
2013-02-12 20:32:00,48.0,26.0,29.98,ESE,102,0.0,-999.0,42,-99.99,,,-99.99,,2013-02-13 01:32:00,
2013-02-12 20:42:00,48.0,26.0,29.98,ESE,102,0.0,-999.0,42,-99.99,,,-99.99,,2013-02-13 01:42:00,
2013-02-12 20:52:00,48.0,26.0,30.00,ESE,102,0.0,-999.0,42,-99.99,,,-99.99,,2013-02-13 01:52:00,
2013-02-12 21:01:00,48.0,25.0,30.00,East,101,0.0,-999.0,41,-99.99,,,-99.99,,2013-02-13 02:01:00,
2013-02-12 21:11:00,48.0,25.0,30.00,East,101,0.0,-999.0,41,-99.99,,,-99.99,,2013-02-13 02:11:00,
2013-02-12 21:22:00,48.0,25.0,29.99,SSE,167,0.0,-999.0,40,-99.99,,,-99.99,,2013-02-13 02:22:00,
2013-02-12 21:32:00,48.0,27.0,29.99,NW,305,0.0,-999.0,44,-99.99,,,-99.99,,2013-02-13 02:32:00,
2013-02-12 21:42:00,48.0,27.0,29.99,NW,305,0.0,-999.0,44,-99.99,,,-99.99,,2013-02-13 02:42:00,
2013-02-12 21:52:00,49.0,28.0,30.00,SSE,154,1.0,-999.0,44,-99.99,,,-99.99,,2013-02-13 02:52:00,
2013-02-12 22:01:00,49.0,32.0,29.98,WSW,239,0.0,-999.0,51,-99.99,,,-99.99,,2013-02-13 03:01:00,
2013-02-12 22:11:00,48.0,34.0,29.99,SSE,153,0.0,-999.0,59,-99.99,,,-99.99,,2013-02-13 03:11:00,
2013-02-12 22:21:00,48.0,34.0,29.99,SSE,153,0.0,-999.0,59,-99.99,,,-99.99,,2013-02-13 03:21:00,
2013-02-12 22:32:00,46.0,35.0,30.00,South,178,0.0,-999.0,65,-99.99,,,-99.99,,2013-02-13 03:32:00,
2013-02-12 22:42:00,46.0,35.0,30.00,South,178,0.0,-999.0,65,-99.99,,,-99.99,,2013-02-13 03:42:00,
2013-02-12 22:51:00,45.0,36.0,30.00,SE,138,0.0,-999.0,70,-99.99,,,-99.99,,2013-02-13 03:51:00,
2013-02-12 23:01:00,43.0,38.0,29.99,West,279,0.0,-999.0,81,-99.99,,,-99.99,,2013-02-13 04:01:00,
2013-02-12 23:11:00,43.0,38.0,29.99,West,279,0.0,-999.0,81,-99.99,,,-99.99,,2013-02-13 04:11:00,
2013-02-12 23:21:00,42.0,38.0,30.00,West,280,0.0,-999.0,87,-99.99,,,-99.99,,2013-02-13 04:21:00,
2013-02-12 23:32:00,41.0,38.0,29.99,West,274,0.0,-999.0,89,-99.99,,,-99.99,,2013-02-13 04:32:00,
2013-02-12 23:42:00,41.0,38.0,29.99,West,274,0.0,-999.0,89,-99.99,,,-99.99,,2013-02-13 04:42:00,
2013-02-12 23:51:00,41.0,38.0,29.97,West,274,0.0,-999.0,90,-99.99,,,-99.99,,2013-02-13 04:51:00,